QPF
0.00 0.00 0.00 0.00 0.00 0.00 0.00 0.00 0.00 0.00 0.00 0.00 0.00 0.00 0.00 0.00 0.00 0.00 0.00 0.00 0.00 0.00 0.00 0.00 0.00 0.01 0.07 0.15 0.09 0.08 0.09 0.05 0.02 0.00 0.00 0.00 0.00 0.00 0.00 0.00 0.00 0.00 0.00
0.00 0.00 0.00 0.00 0.00 0.00 0.00 0.00 0.00 0.00 0.00 0.00 0.00 0.00 0.00 0.00 0.00 0.00 0.00 0.00 0.00 0.00 0.00 0.00 0.00 0.01 0.03 0.08 0.11 0.10 0.08 0.04 0.00 0.00 0.00 0.00 0.00 0.00 0.00 0.00 0.00 0.00 0.00
0.00 0.00 0.00 0.00 0.00 0.00 0.00 0.00 0.00 0.00 0.00 0.00 0.00 0.00 0.00 0.00 0.00 0.00 0.00 0.00 0.00 0.00 0.00 0.00 0.00 0.00 0.02 0.03 0.07 0.09 0.07 0.03 0.01 0.00 0.00 0.00 0.00 0.00 0.00 0.00 0.00 0.00 0.00
0.00 0.00 0.00 0.00 0.00 0.00 0.00 0.00 0.00 0.00 0.00 0.00 0.00 0.00 0.00 0.00 0.00 0.00 0.00 0.00 0.00 0.00 0.00 0.00 0.00 0.00 0.01 0.01 0.03 0.07 0.09 0.02 0.01 0.00 0.00 0.00 0.00 0.00 0.00 0.00 0.00 0.01 0.00
0.00 0.00 0.00 0.00 0.00 0.00 0.00 0.00 0.00 0.00 0.00 0.00 0.00 0.00 0.00 0.00 0.00 0.00 0.00 0.00 0.00 0.00 0.00 0.00 0.00 0.00 0.01 0.02 0.02 0.06 0.06 0.01 0.00 0.00 0.00 0.00 0.00 0.00 0.00 0.01 0.00 0.00 0.00
0.00 0.00 0.00 0.00 0.00 0.00 0.00 0.00 0.00 0.00 0.00 0.00 0.00 0.00 0.00 0.00 0.00 0.00 0.00 0.00 0.00 0.00 0.00 0.00 0.00 0.00 0.00 0.02 0.02 0.04 0.08 0.04 0.00 0.00 0.00 0.00 0.00 0.00 0.00 0.00 0.00 0.00 0.00
0.00 0.00 0.00 0.00 0.00 0.00 0.00 0.00 0.00 0.00 0.00 0.00 0.00 0.00 0.00 0.00 0.00 0.00 0.00 0.00 0.00 0.00 0.00 0.00 0.00 0.00 0.00 0.02 0.01 0.03 0.09 0.06 0.00 0.00 0.00 0.00 0.00 0.00 0.00 0.00 0.00 0.00 0.00
0.00 0.00 0.00 0.00 0.00 0.00 0.00 0.00 0.00 0.01 0.00 0.00 0.01 0.00 0.00 0.00 0.00 0.00 0.00 0.00 0.00 0.00 0.00 0.00 0.00 0.00 0.00 0.00 0.01 0.03 0.12 0.04 0.00 0.00 0.00 0.00 0.00 0.00 0.00 0.00 0.00 0.00 0.00
0.00 0.00 0.00 0.00 0.00 0.00 0.00 0.00 0.00 0.01 0.01 0.00 0.00 0.01 0.00 0.00 0.00 0.00 0.00 0.00 0.00 0.00 0.00 0.00 0.00 0.00 0.00 0.00 0.00 0.01 0.09 0.14 0.03 0.00 0.00 0.00 0.00 0.00 0.00 0.00 0.01 0.01 0.00
0.00 0.00 0.00 0.00 0.00 0.00 0.00 0.00 0.00 0.00 0.01 0.01 0.00 0.01 0.01 0.01 0.01 0.00 0.00 0.00 0.00 0.00 0.00 0.00 0.00 0.00 0.00 0.00 0.00 0.01 0.08 0.16 0.05 0.00 0.00 0.00 0.00 0.00 0.00 0.00 0.00 0.00 0.00
0.00 0.00 0.00 0.00 0.00 0.00 0.00 0.00 0.00 0.01 0.00 0.01 0.01 0.00 0.00 0.00 0.00 0.01 0.00 0.00 0.00 0.00 0.00 0.00 0.00 0.00 0.00 0.00 0.00 0.01 0.07 0.16 0.04 0.00 0.00 0.00 0.00 0.00 0.00 0.00 0.01 0.00 0.00
0.00 0.00 0.00 0.00 0.00 0.00 0.00 0.00 0.00 0.01 0.01 0.00 0.00 0.00 0.00 0.00 0.00 0.00 0.00 0.00 0.00 0.00 0.00 0.00 0.00 0.00 0.00 0.00 0.00 0.00 0.04 0.13 0.03 0.00 0.00 0.00 0.00 0.00 0.00 0.00 0.00 0.00 0.00
0.00 0.00 0.00 0.00 0.00 0.00 0.00 0.00 0.00 0.01 0.00 0.00 0.00 0.00 0.00 0.00 0.00 0.00 0.00 0.00 0.00 0.00 0.00 0.00 0.00 0.00 0.00 0.00 0.00 0.00 0.01 0.08 0.04 0.00 0.00 0.00 0.00 0.00 0.00 0.00 0.00 0.00 0.01
0.00 0.00 0.00 0.00 0.00 0.00 0.00 0.00 0.01 0.00 0.00 0.00 0.00 0.00 0.00 0.00 0.00 0.00 0.00 0.00 0.00 0.00 0.00 0.00 0.00 0.01 0.00 0.00 0.00 0.00 0.00 0.05 0.03 0.00 0.00 0.00 0.00 0.00 0.00 0.00 0.00 0.00 0.00
0.00 0.00 0.00 0.00 0.00 0.00 0.00 0.00 0.00 0.00 0.00 0.00 0.00 0.00 0.00 0.00 0.00 0.00 0.00 0.00 0.00 0.00 0.00 0.00 0.00 0.02 0.01 0.00 0.00 0.00 0.00 0.03 0.03 0.00 0.00 0.00 0.00 0.00 0.00 0.00 0.00 0.00 0.00
0.00 0.00 0.00 0.00 0.00 0.00 0.00 0.00 0.00 0.00 0.00 0.00 0.00 0.00 0.00 0.00 0.00 0.00 0.00 0.00 0.00 0.00 0.00 0.00 0.00 0.01 0.01 0.00 0.00 0.00 0.00 0.03 0.03 0.00 0.00 0.00 0.00 0.00 0.00 0.00 0.00 0.00 0.00
0.00 0.00 0.00 0.00 0.00 0.00 0.00 0.00 0.00 0.00 0.00 0.00 0.00 0.00 0.00 0.00 0.00 0.00 0.00 0.00 0.00 0.00 0.00 0.00 0.00 0.00 0.01 0.00 0.00 0.00 0.00 0.03 0.04 0.00 0.00 0.00 0.00 0.00 0.00 0.00 0.00 0.00 0.00
0.00 0.00 0.00 0.00 0.00 0.00 0.00 0.00 0.00 0.00 0.00 0.00 0.00 0.00 0.00 0.00 0.00 0.00 0.00 0.00 0.00 0.00 0.00 0.00 0.00 0.00 0.00 0.00 0.00 0.01 0.00 0.02 0.03 0.01 0.00 0.00 0.00 0.00 0.00 0.00 0.00 0.00 0.00
0.00 0.00 0.00 0.00 0.00 0.00 0.00 0.00 0.00 0.00 0.00 0.00 0.00 0.00 0.00 0.00 0.00 0.00 0.00 0.00 0.00 0.00 0.00 0.00 0.00 0.00 0.00 0.00 0.00 0.00 0.01 0.01 0.02 0.02 0.01 0.00 0.00 0.00 0.00 0.00 0.00 0.00 0.00
0.00 0.00 0.00 0.00 0.00 0.00 0.00 0.00 0.00 0.00 0.00 0.00 0.00 0.00 0.00 0.00 0.00 0.00 0.00 0.00 0.00 0.00 0.00 0.00 0.00 0.00 0.00 0.00 0.00 0.00 0.01 0.01 0.01 0.02 0.02 0.00 0.00 0.00 0.00 0.00 0.00 0.00 0.00
0.00 0.00 0.00 0.00 0.00 0.00 0.00 0.00 0.00 0.00 0.00 0.00 0.00 0.00 0.00 0.00 0.00 0.00 0.00 0.00 0.00 0.00 0.00 0.00 0.00 0.00 0.00 0.00 0.00 0.00 0.01 0.01 0.01 0.01 0.02 0.01 0.00 0.00 0.00 0.00 0.00 0.00 0.00
0.00 0.00 0.00 0.00 0.00 0.00 0.00 0.00 0.00 0.00 0.00 0.00 0.00 0.00 0.00 0.00 0.00 0.00 0.00 0.00 0.00 0.00 0.00 0.00 0.00 0.00 0.00 0.00 0.00 0.00 0.00 0.00 0.00 0.02 0.02 0.01 0.00 0.00 0.00 0.00 0.00 0.00 0.00
0.00 0.00 0.00 0.00 0.00 0.00 0.00 0.00 0.00 0.00 0.00 0.00 0.00 0.00 0.00 0.00 0.00 0.00 0.00 0.00 0.00 0.00 0.00 0.00 0.00 0.00 0.00 0.00 0.00 0.00 0.00 0.00 0.00 0.00 0.01 0.01 0.01 0.00 0.00 0.00 0.00 0.00 0.00
0.00 0.00 0.00 0.00 0.00 0.00 0.00 0.00 0.00 0.00 0.00 0.00 0.00 0.00 0.00 0.00 0.00 0.00 0.00 0.00 0.00 0.00 0.00 0.00 0.00 0.00 0.00 0.00 0.00 0.00 0.00 0.00 0.00 0.00 0.00 0.00 0.01 0.01 0.01 0.00 0.00 0.01 0.01
0.00 0.00 0.00 0.00 0.00 0.00 0.00 0.00 0.00 0.00 0.00 0.00 0.00 0.00 0.00 0.00 0.00 0.00 0.00 0.00 0.00 0.00 0.00 0.00 0.00 0.00 0.00 0.00 0.00 0.00 0.00 0.00 0.00 0.00 0.00 0.00 0.00 0.00 0.00 0.00 0.00 0.00 0.01
0.00 0.00 0.00 0.00 0.00 0.00 0.00 0.00 0.00 0.00 0.00 0.00 0.00 0.00 0.00 0.00 0.00 0.00 0.00 0.00 0.00 0.00 0.00 0.00 0.00 0.00 0.00 0.00 0.00 0.00 0.00 0.00 0.00 0.00 0.00 0.00 0.00 0.00 0.00 0.00 0.00 0.00 0.00
MSLP
1023.67 1023.37 1022.84 1022.43 1022.07 1021.50 1021.06 1020.49 1019.86 1019.14 1018.40 1017.95 1017.65 1017.31 1016.71 1016.07 1015.52 1015.18 1014.77 1014.31 1013.80 1013.26 1012.89 1012.49 1012.16 1011.68 1011.32 1010.75 1009.01 1009.11 1011.00 1012.17 1012.86 1013.68 1014.76 1015.60 1016.23 1017.21 1018.04 1018.53 1018.99 1019.74 1020.29
1023.67 1023.31 1022.86 1022.35 1021.90 1021.25 1020.72 1020.24 1019.48 1018.75 1018.14 1017.59 1017.09 1016.54 1015.92 1015.25 1014.68 1014.30 1013.97 1013.57 1013.30 1012.88 1012.53 1012.26 1011.89 1011.51 1011.07 1010.43 1009.78 1008.82 1009.75 1011.15 1012.43 1013.24 1014.45 1015.29 1016.08 1017.27 1017.97 1018.70 1019.19 1019.91 1020.41
1023.57 1023.31 1022.80 1022.25 1021.73 1021.06 1020.44 1019.73 1019.07 1018.39 1017.76 1016.94 1016.45 1015.75 1015.07 1014.54 1013.95 1013.53 1013.22 1012.82 1012.54 1012.27 1012.07 1011.98 1011.60 1011.24 1010.74 1009.73 1008.77 1008.49 1008.54 1010.24 1011.71 1012.97 1014.04 1014.92 1015.93 1017.13 1017.97 1018.78 1019.49 1020.08 1020.55
1023.50 1023.17 1022.73 1022.21 1021.54 1020.85 1020.10 1019.34 1018.62 1017.89 1017.23 1016.70 1015.93 1015.17 1014.40 1013.71 1013.22 1012.82 1012.45 1012.12 1011.83 1011.66 1011.54 1011.49 1011.23 1010.78 1010.18 1009.72 1009.28 1007.34 1009.15 1010.17 1011.81 1012.92 1013.89 1014.66 1015.60 1016.96 1017.96 1018.77 1019.64 1020.16 1020.79
1023.45 1023.17 1022.77 1022.16 1021.48 1020.55 1019.75 1019.03 1018.35 1017.61 1016.92 1016.19 1015.38 1014.53 1013.73 1013.07 1012.55 1012.03 1011.67 1011.26 1011.21 1010.97 1010.98 1010.92 1010.72 1010.13 1009.49 1009.30 1009.24 1009.01 1005.79 1008.63 1011.23 1012.86 1013.78 1014.40 1015.33 1016.72 1017.84 1018.87 1019.73 1020.35 1020.90
1023.54 1023.21 1022.68 1021.97 1021.13 1020.29 1019.51 1018.84 1018.15 1017.42 1016.68 1015.89 1015.17 1014.10 1013.17 1012.35 1011.80 1011.40 1011.00 1010.75 1010.55 1010.20 1010.33 1010.23 1010.22 1009.66 1008.84 1008.88 1009.00 1008.70 1008.83 1009.99 1010.71 1012.36 1013.45 1014.07 1015.26 1016.59 1017.85 1018.85 1019.76 1020.42 1021.01
1023.69 1023.18 1022.51 1021.86 1020.88 1019.98 1019.39 1018.74 1018.07 1017.30 1016.47 1015.90 1015.07 1013.77 1012.47 1011.54 1010.96 1010.71 1010.72 1010.14 1009.89 1009.66 1009.46 1009.55 1009.47 1009.02 1008.51 1008.12 1008.36 1007.67 1008.81 1008.22 1010.62 1011.98 1012.88 1014.05 1015.21 1016.52 1017.80 1018.89 1019.75 1020.42 1021.12
1023.69 1022.97 1022.43 1021.74 1020.47 1019.96 1019.38 1018.81 1018.14 1017.38 1016.69 1016.12 1015.53 1014.28 1012.47 1011.27 1010.77 1010.71 1010.05 1009.76 1009.59 1009.36 1009.09 1008.85 1008.82 1008.40 1007.96 1007.90 1007.59 1007.40 1007.53 1008.30 1009.84 1011.38 1012.85 1014.06 1015.14 1016.51 1017.72 1018.85 1019.63 1020.45 1021.25
1023.55 1022.90 1022.25 1021.57 1020.75 1020.26 1019.54 1018.94 1018.29 1017.71 1016.72 1016.07 1015.71 1015.32 1013.82 1012.77 1011.75 1009.94 1009.75 1009.49 1009.28 1008.83 1008.59 1008.25 1008.10 1007.79 1007.83 1007.65 1007.73 1006.96 1007.93 1007.99 1009.55 1011.44 1012.98 1013.99 1015.14 1016.55 1017.70 1018.74 1019.56 1020.43 1021.25
1023.59 1022.82 1022.05 1021.36 1020.74 1020.23 1019.65 1019.01 1018.22 1017.66 1017.00 1016.03 1015.36 1014.71 1014.61 1013.89 1012.93 1010.68 1009.71 1009.11 1008.57 1008.15 1007.84 1007.53 1007.41 1007.12 1006.86 1006.82 1007.27 1006.79 1007.31 1008.66 1009.68 1011.48 1012.61 1013.91 1015.32 1016.51 1017.67 1018.72 1019.52 1020.40 1021.30
1023.61 1022.78 1021.90 1021.22 1020.66 1020.14 1019.58 1018.82 1018.03 1017.35 1016.84 1016.05 1015.36 1014.70 1014.04 1013.36 1012.91 1011.97 1010.28 1009.02 1008.26 1007.52 1007.06 1006.86 1006.60 1006.67 1006.47 1006.43 1005.88 1007.13 1007.91 1009.70 1009.83 1011.12 1012.49 1013.98 1015.28 1016.45 1017.59 1018.70 1019.55 1020.37 1021.32
1023.57 1022.71 1021.91 1021.26 1020.70 1020.00 1019.36 1018.56 1017.85 1017.10 1016.47 1015.94 1015.21 1014.50 1013.85 1013.21 1012.55 1011.92 1010.91 1009.87 1008.98 1007.26 1006.46 1006.26 1006.19 1005.81 1006.10 1005.94 1005.40 1007.05 1008.10 1009.48 1009.92 1010.79 1012.71 1014.04 1015.25 1016.29 1017.53 1018.67 1019.52 1020.32 1021.34
1023.59 1022.80 1022.24 1021.53 1020.76 1019.94 1019.24 1018.29 1017.51 1016.89 1016.34 1015.58 1014.77 1014.00 1013.28 1012.55 1011.95 1011.28 1010.69 1009.75 1008.89 1007.11 1005.80 1005.43 1005.29 1005.40 1005.54 1005.58 1005.62 1007.22 1008.72 1009.78 1010.03 1010.87 1012.87 1013.98 1015.09 1016.27 1017.57 1018.59 1019.40 1020.33 1021.36
1023.90 1023.14 1022.46 1021.75 1020.89 1019.98 1019.22 1018.16 1017.37 1016.79 1016.00 1015.20 1014.25 1013.33 1012.62 1011.73 1010.96 1010.34 1010.00 1009.44 1008.59 1007.28 1005.55 1004.87 1004.69 1004.76 1004.97 1004.44 1005.63 1006.76 1007.27 1009.34 1010.58 1011.28 1012.93 1013.83 1015.05 1016.48 1017.57 1018.49 1019.44 1020.45 1021.42
1023.82 1023.31 1022.69 1021.94 1021.09 1020.21 1019.04 1018.14 1017.31 1016.59 1015.75 1014.84 1013.70 1012.75 1011.90 1010.89 1009.95 1009.39 1008.98 1008.78 1008.40 1006.79 1005.37 1005.09 1004.43 1004.52 1004.04 1004.98 1006.22 1007.35 1008.77 1009.94 1010.97 1011.67 1012.98 1013.94 1015.25 1016.61 1017.58 1018.53 1019.59 1020.54 1021.51
1024.22 1023.66 1022.93 1022.13 1021.30 1020.34 1019.18 1018.21 1017.45 1016.62 1015.63 1014.51 1013.46 1012.38 1011.23 1010.20 1009.22 1008.67 1008.28 1007.90 1007.63 1007.06 1005.39 1004.95 1004.47 1004.03 1004.76 1005.80 1006.54 1007.95 1009.28 1010.40 1011.43 1011.92 1013.17 1014.09 1015.52 1016.62 1017.65 1018.72 1019.77 1020.63 1021.58
1024.66 1024.07 1023.41 1022.52 1021.62 1020.62 1019.52 1018.51 1017.63 1016.66 1015.64 1014.43 1013.21 1011.98 1010.90 1009.77 1009.00 1008.17 1007.64 1007.33 1006.82 1006.31 1005.39 1004.95 1004.41 1004.40 1005.49 1006.11 1007.20 1008.32 1009.47 1010.15 1011.88 1012.32 1013.57 1014.44 1015.64 1016.63 1017.92 1018.98 1019.87 1020.73 1021.63
1025.10 1024.56 1023.83 1022.92 1021.98 1021.01 1019.98 1018.89 1017.82 1016.83 1015.69 1014.39 1013.25 1011.97 1010.92 1009.81 1008.91 1007.91 1007.31 1006.98 1006.85 1005.85 1005.01 1005.01 1005.57 1005.70 1006.09 1006.67 1007.55 1008.51 1009.45 1010.57 1012.06 1012.95 1013.82 1014.75 1015.67 1016.95 1018.12 1019.15 1019.88 1020.78 1021.74
1025.53 1024.94 1024.19 1023.35 1022.43 1021.46 1020.48 1019.33 1018.45 1017.25 1016.21 1014.92 1013.86 1012.51 1011.19 1010.07 1008.68 1008.28 1007.78 1007.05 1006.84 1006.19 1005.63 1005.82 1006.19 1006.72 1007.30 1007.76 1008.30 1008.48 1009.19 1010.28 1012.10 1013.51 1014.30 1014.99 1016.04 1017.30 1018.30 1019.24 1020.04 1020.95 1021.87
1025.95 1025.36 1024.71 1024.00 1022.92 1021.91 1020.97 1020.03 1019.05 1017.78 1016.82 1015.53 1014.31 1013.25 1012.25 1011.13 1009.98 1008.93 1008.14 1007.91 1007.65 1007.22 1006.93 1006.85 1007.30 1007.59 1008.28 1008.81 1008.48 1008.42 1009.24 1010.48 1012.53 1013.91 1015.08 1015.81 1016.93 1017.74 1018.58 1019.38 1020.29 1021.19 1022.02
1026.44 1025.91 1025.21 1024.45 1023.44 1022.30 1021.45 1020.82 1019.74 1018.72 1017.52 1016.38 1015.26 1014.29 1013.22 1012.49 1011.37 1010.54 1009.70 1009.30 1008.60 1008.32 1008.25 1008.11 1008.32 1008.98 1009.72 1009.90 1009.75 1009.61 1009.83 1011.30 1013.12 1014.01 1015.38 1016.99 1017.85 1018.84 1019.59 1020.10 1020.80 1021.45 1022.17
1026.99 1026.42 1025.66 1025.04 1024.27 1023.13 1021.91 1021.54 1020.72 1019.52 1018.53 1017.33 1016.09 1015.08 1014.33 1013.40 1012.84 1012.32 1011.67 1010.81 1010.13 1009.69 1009.86 1009.95 1010.83 1011.13 1011.51 1011.42 1011.12 1010.56 1010.65 1011.95 1013.74 1014.29 1015.54 1017.21 1017.89 1018.95 1019.73 1020.56 1021.12 1021.80 1022.53
1027.79 1027.12 1026.43 1025.65 1025.04 1023.97 1022.58 1021.95 1021.43 1020.62 1019.72 1018.63 1017.44 1016.53 1015.64 1014.88 1014.05 1013.54 1013.16 1012.65 1012.19 1011.91 1011.99 1012.03 1012.18 1012.69 1012.31 1012.48 1012.02 1011.62 1011.72 1012.76 1014.26 1015.45 1015.57 1017.39 1018.39 1019.33 1020.20 1021.14 1021.71 1022.23 1022.90
1028.49 1027.92 1027.28 1026.48 1025.73 1024.74 1023.69 1022.85 1022.22 1021.41 1020.70 1019.98 1019.07 1018.21 1017.26 1016.49 1015.82 1014.97 1014.52 1013.90 1013.76 1013.71 1013.58 1013.29 1013.44 1013.79 1013.71 1012.95 1012.32 1011.24 1012.61 1013.75 1015.25 1016.10 1016.39 1018.04 1018.83 1020.43 1021.46 1022.34 1022.64 1023.00 1023.53
1029.16 1028.63 1028.05 1027.31 1026.49 1025.65 1024.63 1023.66 1022.92 1022.26 1021.64 1021.20 1020.58 1019.89 1019.27 1018.48 1017.64 1016.55 1015.83 1015.29 1015.30 1015.44 1015.51 1015.45 1015.25 1014.51 1014.07 1013.15 1012.69 1012.00 1013.28 1013.88 1016.20 1017.87 1018.12 1018.60 1020.48 1021.77 1022.97 1023.92 1024.14 1024.20 1024.26
1030.06 1029.41 1028.75 1028.15 1027.62 1026.74 1025.72 1024.90 1024.28 1023.67 1022.77 1022.20 1021.82 1021.45 1020.79 1019.98 1019.27 1018.24 1017.62 1017.39 1016.62 1017.34 1017.12 1016.14 1015.44 1015.27 1014.89 1014.50 1014.66 1014.63 1014.06 1015.07 1017.01 1018.57 1019.41 1019.83 1020.97 1021.42 1024.02 1025.70 1025.65 1025.39 1025.38
Thickness
5482 5477 5473 5469 5465 5461 5457 5453 5451 5449 5448 5447 5445 5447 5451 5457 5464 5472 5485 5498 5511 5528 5540 5552 5567 5581 5592 5603 5631 5640 5632 5633 5635 5637 5637 5637 5639 5638 5638 5643 5646 5644 5645
5470 5464 5459 5454 5449 5445 5440 5436 5433 5432 5429 5426 5421 5419 5422 5426 5433 5442 5456 5473 5490 5509 5525 5537 5553 5568 5582 5597 5618 5635 5635 5632 5632 5636 5635 5636 5637 5636 5637 5639 5643 5642 5643
5458 5450 5445 5440 5433 5429 5424 5420 5415 5411 5407 5403 5398 5394 5394 5395 5399 5406 5417 5440 5466 5488 5508 5522 5538 5557 5575 5595 5611 5627 5632 5632 5631 5632 5633 5636 5635 5634 5637 5637 5638 5639 5641
5445 5438 5431 5424 5418 5412 5408 5404 5398 5392 5385 5380 5377 5376 5378 5382 5385 5387 5394 5408 5433 5463 5491 5508 5525 5550 5565 5586 5605 5628 5620 5624 5621 5625 5631 5633 5636 5634 5635 5636 5635 5637 5638
5433 5423 5416 5409 5403 5399 5394 5387 5378 5372 5368 5366 5367 5366 5366 5370 5372 5375 5381 5390 5409 5441 5472 5492 5516 5542 5560 5580 5593 5604 5623 5635 5621 5621 5627 5633 5636 5633 5634 5633 5632 5634 5636
5419 5410 5403 5397 5391 5386 5379 5370 5362 5357 5356 5357 5356 5357 5356 5360 5363 5364 5370 5376 5393 5422 5454 5480 5509 5532 5558 5574 5585 5602 5615 5614 5622 5623 5628 5633 5634 5631 5631 5632 5630 5632 5634
5407 5400 5393 5386 5380 5373 5363 5355 5351 5349 5347 5345 5344 5347 5347 5353 5355 5356 5356 5366 5383 5407 5442 5473 5502 5525 5551 5571 5584 5605 5609 5613 5614 5621 5628 5632 5632 5629 5629 5629 5629 5630 5632
5397 5390 5383 5375 5369 5358 5349 5344 5341 5339 5334 5330 5328 5331 5338 5338 5343 5342 5348 5357 5373 5398 5432 5471 5495 5523 5548 5567 5585 5598 5613 5612 5617 5621 5625 5630 5631 5627 5629 5627 5629 5629 5629
5390 5382 5374 5366 5356 5345 5340 5335 5332 5327 5325 5318 5312 5308 5315 5316 5317 5334 5340 5350 5368 5395 5434 5466 5491 5523 5542 5564 5576 5602 5602 5618 5618 5616 5621 5627 5628 5625 5626 5626 5629 5628 5629
5381 5373 5366 5356 5345 5337 5331 5327 5325 5319 5314 5311 5304 5302 5297 5295 5298 5317 5331 5347 5370 5400 5438 5466 5496 5523 5545 5565 5578 5600 5602 5608 5614 5616 5623 5624 5624 5625 5625 5625 5628 5627 5627
5373 5365 5358 5348 5338 5331 5326 5323 5319 5315 5308 5303 5298 5296 5297 5298 5297 5303 5318 5345 5374 5410 5443 5473 5502 5525 5546 5565 5585 5589 5597 5596 5611 5619 5621 5622 5623 5625 5624 5623 5625 5626 5626
5367 5359 5350 5340 5333 5328 5323 5319 5315 5311 5304 5299 5297 5296 5296 5295 5296 5299 5314 5341 5373 5417 5453 5482 5506 5532 5547 5565 5589 5587 5594 5597 5610 5620 5618 5620 5622 5626 5624 5622 5624 5626 5625
5362 5354 5343 5334 5329 5325 5320 5318 5314 5307 5301 5299 5299 5298 5298 5297 5298 5304 5320 5349 5384 5429 5466 5491 5516 5535 5551 5566 5587 5589 5589 5597 5608 5618 5617 5620 5624 5626 5622 5622 5624 5624 5624
5354 5345 5335 5327 5323 5321 5318 5316 5311 5305 5301 5300 5302 5302 5302 5304 5307 5319 5336 5366 5398 5436 5477 5504 5522 5541 5557 5580 5584 5592 5595 5598 5601 5613 5616 5622 5625 5623 5623 5624 5624 5623 5622
5350 5339 5328 5322 5319 5318 5318 5315 5310 5306 5305 5305 5306 5307 5310 5316 5325 5338 5361 5390 5417 5455 5493 5505 5532 5547 5565 5575 5579 5584 5585 5593 5600 5610 5616 5621 5623 5622 5624 5624 5623 5623 5622
5345 5333 5323 5320 5317 5317 5317 5314 5309 5308 5310 5312 5313 5317 5325 5334 5343 5362 5389 5415 5438 5462 5502 5515 5537 5559 5564 5570 5580 5581 5584 5590 5599 5609 5614 5620 5620 5622 5623 5623 5622 5622 5621
5340 5329 5320 5318 5316 5317 5317 5314 5312 5314 5315 5319 5326 5332 5342 5349 5360 5387 5413 5437 5459 5481 5511 5525 5544 5559 5561 5568 5576 5581 5584 5594 5595 5606 5611 5617 5620 5623 5621 5621 5621 5621 5621
5336 5325 5318 5317 5316 5316 5316 5315 5316 5318 5322 5329 5336 5344 5352 5361 5380 5409 5431 5452 5468 5493 5520 5536 5539 5549 5558 5568 5576 5582 5587 5589 5593 5601 5608 5615 5620 5619 5618 5619 5621 5620 5619
5334 5324 5318 5317 5317 5317 5317 5317 5319 5324 5327 5334 5344 5355 5365 5377 5403 5423 5441 5461 5478 5499 5519 5533 5541 5547 5553 5563 5573 5586 5593 5596 5594 5598 5605 5614 5616 5615 5615 5617 5618 5618 5616
5335 5325 5319 5316 5317 5318 5319 5319 5322 5330 5333 5342 5351 5361 5371 5390 5411 5435 5453 5467 5482 5499 5515 5531 5540 5547 5552 5560 5577 5593 5596 5596 5591 5592 5596 5603 5604 5608 5611 5613 5613 5613 5613
5336 5326 5320 5318 5319 5322 5324 5322 5327 5335 5342 5350 5358 5368 5382 5398 5420 5437 5454 5467 5486 5500 5511 5525 5536 5542 5544 5557 5573 5581 5598 5593 5587 5594 5593 5590 5591 5592 5597 5602 5606 5608 5609
5338 5328 5323 5320 5320 5324 5327 5326 5330 5339 5347 5357 5367 5379 5390 5406 5421 5435 5451 5469 5484 5499 5506 5516 5518 5528 5537 5549 5560 5579 5595 5590 5587 5588 5592 5589 5592 5595 5598 5601 5604 5605 5605
5340 5332 5325 5323 5322 5326 5331 5333 5337 5344 5350 5360 5373 5383 5397 5410 5425 5437 5450 5463 5476 5489 5496 5505 5512 5521 5536 5543 5557 5574 5590 5589 5583 5584 5593 5588 5589 5592 5591 5589 5593 5597 5597
5344 5336 5328 5326 5326 5329 5333 5337 5343 5350 5357 5364 5374 5386 5398 5410 5422 5438 5449 5463 5472 5481 5490 5501 5510 5517 5528 5545 5560 5583 5580 5581 5580 5583 5589 5587 5586 5579 5578 5578 5582 5583 5585
5349 5341 5334 5329 5331 5333 5337 5343 5349 5357 5363 5368 5377 5388 5398 5409 5421 5438 5451 5463 5471 5475 5480 5489 5502 5518 5531 5548 5561 5580 5580 5588 5574 5566 5574 5580 5570 5568 5565 5565 5568 5574 5577
5353 5346 5341 5335 5333 5336 5341 5346 5351 5357 5367 5373 5380 5388 5399 5410 5421 5436 5447 5455 5468 5468 5476 5492 5507 5517 5527 5537 5544 5556 5573 5577 5568 5567 5564 5570 5565 5569 5553 5547 5553 5560 5564